OPS 4682 DEB, 38444

Orbit data source: Space-Track

OPS 4682 DEB, 38444 is space debris in LEO originally from a launch on Sat, 03 Apr 1965 UTC launched from the Air Force Western Test Range (AFWTR). Debris objects in space refer to the collection of defunct objects orbiting the Earth. Examples of debris include non-operational satellites, rocket bodies, and fragments generated from explosions, collisions, or faulty payload assembly.

Loading next visibility...
Identifier
38444, 1965-027EZ
Orbit
LEO
Country
Flag of USUS
Related business
Manufacturer
Unknown
Mission
Spacecraft
Bus & Motor
Unknown
Mass
Unknown
Launch date (UTC)
1965-04-03 (61 years ago)
Launch vehicle
Unknown
Launch site
Air Force Western Test Range (AFWTR)
Object type
Payload
Rocket body
Debris
Shape & HBR
Unknown shape, 0.1 m
Radar Cross Section
Small (<0.1 m²)

Expand to show TLE details & history
Last TLE update: 2 days ago

TLE from 2 days ago
0 OPS 4682 DEB
1 38444U 65027EZ  26118.15300677  .00000712  00000-0  24639-2 0  9996
2 38444  90.2488   8.8346 0025542 321.6214  38.3088 12.96324708627942
Epoch: 2026-04-28T03:40Z
TLE epoch observation values (Epoch: 2026-04-28T03:40:19.784Z)
Latitude
-0.00007°
Longitude
97.61976°
Altitude
1,264.074 km
Speed
7.231 km/s
True Right ascension
00h 35m 20s
True Declination
0° 00' 00"
Sunlit
Object was in daylight at epoch
Visualization orbit readout
Latitude
Unknown
Longitude
Unknown
Altitude
Unknown
Speed
Unknown
Apparent Right ascension
Unknown
Apparent Declination
Unknown
Sunlit
N/A
Visualization observer readout
Local Sidereal Time
23:32:39
Azimuth
Unknown
Elevation
Unknown
Doppler factor
Unknown
Orbital elements
Apogee altitude
1,293.197 km
Perigee altitude
1,254.109 km
Semi-major axis
7,651.79 km
Eccentricity
0.00255
Inclination
90.2488°
RAAN
8.8346°
Arg. of periapsis
321.6214°
True anomaly
38.49069°
Mean anomaly
38.3088°
Eccentric anomaly
38.3997°
Mean motion
3.24264 °/min
Orbital period
111.02 mins
BSTAR
0.0024639
Loading maneuver chart data...
Computing Atmospheric mass density...
Loading historical data...
Loading historical data...
Loading historical data...
Loading historical data...
Loading historical data...
Loading historical data...
Loading historical data...

Documentation

Showing up to 5 results
|